White Rock, British Columbia

7:58 PM PDT on March 26, 2017 (GMT -0700)
White Rock

Weather History for CWWK - December, 2012

Change the Weather History Date:

Thursday, December 6, 2012

  Actual Average Record
Temperature  
Mean Temperature 42 °F -  
Max Temperature 45 °F - - ()
Min Temperature 39 °F - - ()
Degree Days  
Heating Degree Days 23    
Moisture  
Dew Point 40 °F    
Average Humidity 88    
Maximum Humidity 93    
Minimum Humidity 77    
Precipitation  
Precipitation 0.47 in - - ()
Sea Level Pressure  
Sea Level Pressure 30.08 in    
Wind  
Wind Speed 4 mph ()    
Max Wind Speed 9 mph    
Max Gust Speed -    
T = Trace of Precipitation, MM = Missing Value Source: Averaged Metar Reports

Daily Weather History Graph

Daily Weather History Graph

Search for Another Location

Airport or City:

Trip Planner

Search our weather history database for the weather conditions in past years. The results will help you decide how hot, cold, wet, or windy it might be!

Date:

Astronomy

Dec. 06, 2012 Rise Set
Actual Time 7:50 AM PST 4:14 PM PST
Civil Twilight 7:13 AM PST 4:51 PM PST
Nautical Twilight 6:33 AM PST 5:31 PM PST
Astronomical Twilight 5:55 AM PST 6:09 PM PST
Moon No Moon Rise 12:15 PM PST (12/6)
Length of Visible Light 9h 37m
Length of Day
8h 23m
Waning Gibbous, 48% of the Moon is Illuminated
Dec 6
Waning Gibbous
Dec 13
New
Dec 19
First Quarter
Dec 28
Full
Jan 4
Last Quarter

Hourly Weather History & Observations

Time (PST) Temp. Windchill Dew Point Humidity Pressure Visibility Wind Dir Wind Speed Gust Speed Precip Events Conditions
12:00 AM 43.7 °F 42.1 °F 40.8 °F 90% 30.17 in - SSE 3.5 mph - 0.02 in   Unknown
1:00 AM 43.2 °F 41.5 °F 40.3 °F 90% 30.16 in - SSE 3.5 mph - 0.05 in   Unknown
2:00 AM 43.3 °F 40.7 °F 40.5 °F 90% 30.14 in - SSE 4.6 mph - 0.05 in   Unknown
3:00 AM 43.3 °F 39.2 °F 40.5 °F 90% 30.14 in - South 6.9 mph - 0.04 in   Unknown
4:00 AM 44 °F - 41 °F 84% 30.12 in - SSE 6.9 mph - -  
4:00 AM 43.7 °F 39.7 °F 40.8 °F 90% 30.12 in - SSE 6.9 mph - 0.05 in   Unknown
5:00 AM 43.0 °F 41.3 °F 40.5 °F 91% 30.10 in - SSE 3.5 mph - 0.03 in   Unknown
6:00 AM 43.2 °F 40.5 °F 40.8 °F 91% 30.08 in - SSE 4.6 mph - 0.05 in   Unknown
7:00 AM 43.9 °F 38.8 °F 41.0 °F 90% 30.07 in - South 9.2 mph - 0.09 in   Unknown
8:00 AM 43.7 °F 39.1 °F 41.0 °F 90% 30.07 in - South 8.1 mph - 0.09 in   Unknown
9:00 AM 43.9 °F 41.3 °F 40.8 °F 89% 30.06 in - South 4.6 mph - 0.10 in   Unknown
10:00 AM 44 °F - 40 °F 83% 30.06 in - SSW 4.6 mph - -  
10:00 AM 43.7 °F 41.1 °F 40.5 °F 88% 30.06 in - SSW 4.6 mph - 0.11 in   Unknown
11:00 AM 43.3 °F 39.9 °F 40.3 °F 89% 30.07 in - SSW 5.8 mph - 0.08 in   Unknown
12:00 PM 43.9 °F 42.3 °F 40.6 °F 88% 30.04 in - SSW 3.5 mph - 0.02 in   Unknown
1:00 PM 44.4 °F 42.0 °F 40.5 °F 86% 30.04 in - SSW 4.6 mph - N/A   Unknown
2:00 PM 45.0 °F 42.6 °F 40.6 °F 85% 30.03 in - SSW 4.6 mph - N/A   Unknown
3:00 PM 45.1 °F 43.7 °F 40.3 °F 83% 30.04 in - SW 3.5 mph - N/A   Unknown
4:00 PM 44 °F - 39 °F 77% 30.05 in - WSW 2.3 mph - -  
4:00 PM 44.4 °F - 39.2 °F 82% 30.05 in - WSW 2.3 mph - N/A   Unknown
5:00 PM 43.5 °F - 39.0 °F 84% 30.06 in - WNW 1.2 mph - N/A   Unknown
6:00 PM 40.5 °F - 37.6 °F 89% 30.07 in - Calm Calm - N/A   Unknown
8:00 PM 39.2 °F - 37.0 °F 92% 30.09 in - NE 1.2 mph - N/A   Unknown
9:00 PM 39.2 °F - 37.2 °F 93% 30.09 in - NE 1.2 mph - N/A   Unknown
10:00 PM 40 °F - 38 °F 91% 30.09 in - East 1.2 mph - -  
10:00 PM 40.3 °F - 38.3 °F 93% 30.09 in - East 1.2 mph - N/A   Unknown
11:00 PM 40.6 °F - 38.5 °F 92% 30.06 in - East 2.3 mph - N/A   Unknown